This is the latest recevied weather packets stored in our database for station/object N6OL. If no packets are shown the sender has not sent any weather packets the latest 10 day(s).
| Time | Temp. | Humidity | Pressure | Rain* | Wind** | Luminosity | Snow |
|---|---|---|---|---|---|---|---|
| 1777464003 | 10.56° C | 87% | 1018.2 hPa | 0 mm | - | 0 W/m² | - |
| 1777463103 | 11.11° C | 87% | 1018.4 hPa | 0 mm | - | 0 W/m² | - |
| 1777462203 | 11.11° C | 87% | 1018.6 hPa | 0 mm | - | 0 W/m² | - |
| 1777458603 | 11.11° C | 87% | 1018.7 hPa | 0 mm | - | 0 W/m² | - |
| 1777458003 | 11.67° C | 87% | 1018.7 hPa | 0 mm | - | 0 W/m² | - |
| 1777455603 | 11.67° C | 86% | 1018.6 hPa | 0 mm | - | 0 W/m² | - |
| 1777453203 | 12.22° C | 86% | 1018.8 hPa | 0 mm | - | 0 W/m² | - |
| 1777451103 | 11.67° C | 83% | 1019.3 hPa | 0 mm | - | 0 W/m² | - |
| 1777448403 | 12.22° C | 81% | 1019.2 hPa | 0 mm | - | 0 W/m² | - |
| 1777446903 | 12.78° C | 81% | 1019.1 hPa | 0 mm | - | 0 W/m² | - |
| 1777445403 | 12.78° C | 82% | 1018.9 hPa | 0 mm | - | 0 W/m² | - |
| 1777445103 | 12.78° C | 81% | 1019 hPa | 0 mm | - | 0 W/m² | - |
| 1777442403 | 13.33° C | 75% | 1018.7 hPa | 0 mm | - | 0 W/m² | - |
| 1777442103 | 13.33° C | 75% | 1018.7 hPa | 0 mm | - | 0 W/m² | - |
| 1777441503 | 13.33° C | 75% | 1019 hPa | 0 mm | - | 0 W/m² | - |
| 1777439103 | 13.33° C | 74% | 1019 hPa | 0 mm | - | 0 W/m² | - |
| 1777438824 | 13.33° C | 74% | 1019 hPa | 0 mm | - | 0 W/m² | - |
| 1777437603 | 13.89° C | 73% | 1019.1 hPa | 0 mm | - | 0 W/m² | - |
| 1777437303 | 13.89° C | 73% | 1019.1 hPa | 0 mm | - | 0 W/m² | - |
| 1777435803 | 13.89° C | 73% | 1018.7 hPa | 0 mm | - | 0 W/m² | - |
| 1777434903 | 14.44° C | 73% | 1018.3 hPa | 0 mm | - | 0 W/m² | - |
| 1777431924 | 14.44° C | 74% | 1018 hPa | 0 mm | - | 0 W/m² | - |
| 1777431303 | 14.44° C | 74% | 1017.9 hPa | 0 mm | - | 5 W/m² | - |
| 1777429503 | 15.56° C | 73% | 1017.5 hPa | 0 mm | - | 39 W/m² | - |
| 1777429224 | 15.56° C | 73% | 1017.5 hPa | 0 mm | - | 47 W/m² | - |
* Rain latest hour (hover to see other rain measurements)
** Current wind speed in m/s (hover to see current wind gust speed)